Printer-friendly version

IAU Minor Planet Center

Minor Planet Center

MPEC 2004-F60 : 2004 FG11

The following Minor Planet Electronic Circular may be linked-to from your own Web pages, but must not otherwise be redistributed electronically.


Read MPEC 2004-F59 Read MPEC 2004-F61


M.P.E.C. 2004-F60                                Issued 2004 Mar. 26, 02:02 UT

     The Minor Planet Electronic Circulars contain information on unusual
         minor planets and routine data on comets.  They are published
   on behalf of Commission 20 of the International Astronomical Union by the
          Minor Planet Center, Smithsonian Astrophysical Observatory,
                          Cambridge, MA 02138, U.S.A.

         Supported in part by the Steven and Michele Kirsch Foundation
             Prepared using the Tamkin Foundation Computer Network

                              MPC@CFA.HARVARD.EDU
          URL http://cfa-www.harvard.edu/iau/mpc.html  ISSN 1523-6714

                                   2004 FG11

Observations:
     K04F11G* C2004 03 23.44656 15 45 55.64 -06 07 09.6          19.7   EF060704
     K04F11G  C2004 03 23.45710 15 46 00.00 -06 07 03.7          19.9   EF060704
     K04F11G  C2004 03 23.46792 15 46 04.38 -06 06 57.3          19.3   EF060704
     K04F11G  C2004 03 23.47880 15 46 08.88 -06 06 51.0          19.6   EF060704
     K04F11G  C2004 03 24.43851 15 53 17.55 -05 56 55.9          19.8 R EF060926
     K04F11G  C2004 03 24.43950 15 53 18.06 -05 56 54.3          19.6 R EF060926
     K04F11G  C2004 03 24.44046 15 53 18.47 -05 56 53.9          19.8 R EF060926
     K04F11G 5C2004 03 24.48773 15 53 40.22 -05 56 23.9          19.5 R EF060673
     K04F11G 5C2004 03 24.48912 15 53 40.95 -05 56 22.3                 EF060673
     K04F11G 5C2004 03 24.49074 15 53 41.80 -05 56 21.7                 EF060673
     K04F11G 5C2004 03 24.49271 15 53 42.72 -05 56 19.8                 EF060673
     K04F11G 5C2004 03 25.42072 16 01 21.86 -05 45 08.7          19.5 R EF060673
     K04F11G 5C2004 03 25.42211 16 01 22.59 -05 45 07.7                 EF060673
     K04F11G 5C2004 03 25.42477 16 01 23.84 -05 45 05.5                 EF060673
     K04F11G 5C2004 03 25.42882 16 01 25.93 -05 45 02.5                 EF060673
     K04F11G  C2004 03 25.63912 16 03 15.93 -05 41 27.9          18.8 R EF060474
     K04F11G  C2004 03 25.65266 16 03 23.09 -05 41 17.7          18.7 R EF060474
     K04F11G  C2004 03 25.65648 16 03 25.07 -05 41 13.9          17.7 R EF060474
     K04F11G  C2004 03 25.66074 16 03 27.23 -05 41 10.4          18.4 R EF060474
     K04F11G IC2004 03 25.67164 16 03 33.11 -05 41 01.6          17.7 R EF060474

Observer details:
474 Mount John Observatory, Lake Tekapo.  Observer A. C. Gilmore.  Measurer
    P. M. Kilmartin.  1.0-m f/7.7 reflector + CCD.
673 Table Mountain Observatory, Wrightwood.  Observer J. Young.  0.6-m
    reflector + CCD.
704 Lincoln Laboratory ETS, New Mexico.  Observers M. Blythe, F. Shelly,
    M. Bezpalko, R. Huber, L. Manguso, D. Torres, R. Kracke, M. McCleary,
    H. Stange, A. Milner.  Measurers J. Stuart, R. Sayer, J. Evans, J. Kommers.
    1.0-m f/2.15 reflector + CCD.
926 Tenagra II Observatory.  Observers P. R. Holvorcem, M. Schwartz.  0.81-m
    f/7 Ritchey-Chretien + CCD.

Orbital elements:
2004 FG11                                                            PHA 0.040
Epoch 2004 Mar. 16.0 TT = JDT 2453080.5                 MPC
M 325.87794              (2000.0)            P               Q
n   0.49789931     Peri.  227.25140     +0.66964878     +0.74072896
a   1.5765523      Node    84.87090     -0.66465293     +0.63002678
e   0.7207602      Incl.    3.09464     -0.33137140     +0.23320993
P   1.98           H   20.4           G   0.15
From 19 observations 2004 Mar. 23-25.

Ephemeris:
2004 FG11                a,e,i = 1.58, 0.72, 3                   q = 0.4402
Date    TT    R. A. (2000) Decl.     Delta      r     Elong.  Phase     V
2004 03 26    16 06.51   -05 36.9    0.223    1.137   123.6    47.0    19.2
2004 03 28    16 27.13   -05 03.4    0.198    1.111   120.3    50.8    19.0
2004 03 30    16 53.22   -04 16.9    0.174    1.085   115.7    56.0    18.8
2004 04 01    17 26.56   -03 12.3    0.153    1.059   109.2    63.0    18.7
2004 04 03    18 08.80   -01 44.3    0.136    1.033   100.4    72.2    18.7
2004 04 05    19 00.30   +00 07.7    0.125    1.006    89.2    83.7    18.8
2004 04 07    19 58.20   +02 12.9    0.121    0.980    76.4    96.7    19.2
2004 04 09    20 56.20   +04 09.5    0.126    0.952    63.6   109.6    19.9
2004 04 11    21 47.94   +05 40.0    0.137    0.925    52.4   120.8    20.8
2004 04 13    22 30.44   +06 41.4    0.155    0.897    43.6   129.6    21.8
2004 04 15    23 03.98   +07 20.5    0.176    0.869    37.1   135.9    22.7

Kyle E. Smalley              (C) Copyright 2004 MPC           M.P.E.C. 2004-F60

Read MPEC 2004-F59 Read MPEC 2004-F61


Our Web policy. Index to the CBAT/MPC/ICQ pages.


Valid HTML 4.01!